Find Starlink 6368

NORAD ID: 57234 Int'l Des: 2023-094 Owner: SPXS Country: US Constellation: starlink operational
LEOCIRCULAR

当前视图

正在加载3D地球...

About Starlink 6368

Starlink 6368 (NORAD 57234) is a starlink constellation satellite (v1.5) launched Jul 7, 2023 by SPXS of US. It operates in LEO, CIRCULAR orbit with a mass of 305.00 kg.

关于 Starlink 6368

正在加载描述...

即将过境

Passes for default location (London). Set your location on the main map for personalized predictions.

高度历史

Loading altitude history...

两行轨道根数

1 57234U 23094S 26193.01816183 -.00000536 00000-0 -99704-5 0 9998
2 57234 43.0044 48.2471 0001028 264.4328 95.6406 15.27582181166131
Epoch: Jul 12, 2026 • Age: 15 hours

当前状态

高度 495.7 km
远地点 / 近地点 N/A
速度 7.62 km/s
星下点 -43.15°S, 149.71°E
发射日期 Jul 7, 2023
运行时间 3 years
类型 internet

技术详情

分类 Payload
质量 305.00 kg
干质量 290.00 kg
总质量 305.00 kg
长度 0.20 m
直径 2.80 m
跨度 9.00 m
形状 Box + pan
制造商 SPXS
平台类型 Starlink
阶段状态 In Orbit
所有者/国家 SPXS/US

Most Searched